Weather in Samotoivka

Ukraine / Sumi District     50°48′42″N   35°08′32″E
temp.,
°C
wind,
m/s
gust,
m/s
humid.,
%
clouds,
%
prec.,
mm/h
press.,
hPa
HPBL,
m
11 april, sun
sun1100:00+6nnw22520 0.0 102713
03:00+5n22610 0.0 102825
06:00+4nne33640 0.0 102933
09:00+8ne35514 0.0 1029322
12:00+12ne45352 0.0 10291227
15:00+14ne563287 0.0 10271395
18:00+13ne5840100 0.0 1027574
21:00+9ne41153100 0.0 1027299
12 april, mon
mon1200:00+7ne41160100 0.0 1028292
03:00+6ne51164100 0.0 1027314
06:00+6ne51073100 0.0 1026333
09:00+8ene51080100 0.0 1025350
12:00+14ene5770100 0.0 1023620
15:00+18e6853100 0.0 10221080
18:00+17ene3758100 0.0 1021167
21:00+15ese41064100 0.0 1021182
13 april, tue
tue1300:00+13ese366546 0.0 1021100
03:00+11ese3479100 0.0 102254
06:00+10ese3785100 0.0 1022138
09:00+14ese6106875 0.0 1021596
12:00+17se6105126 0.0 10211458
15:00+19se6104288 0.0 10202140
18:00+15s366595 0.0 1020395
21:00+13s227697 0.1 102060
14 april, wed
wed1400:00+12s2582100 0.0 1020175
03:00+11se2580100 0.0 1020178
06:00+11ese2486100 0.2 1019149
09:00+13ese3576100 0.2 1018439
12:00+12se4879100 0.5 1018607
15:00+12se5885100 2.9 1017699
18:00+11sse269267 0.8 1017340
21:00+9sse2292100 0.8 101732
15 april, thu
thu1500:00+10e1181100 0.0 101610
03:00+10e1182100 0.0 101610
06:00+9nne2284100 0.0 101610
09:00+12ene2274100 0.0 1015206
12:00+15ene2361100 0.0 1014737
15:00+17se3646100 0.0 10131714
18:00+16e1155100 0.0 101219
21:00+13ene1174100 0.6 101228